Regional Weather Roundup
Issued by NWS

Home | Current Version | Previous Version | Text Only | Print | Product List | Glossary Off
Versions: 1 2 3 4 5 6 7 8 9 10 11 12 13 14 15 16 17 18 19 20 21 22 23 24 25 26 27 28 29 30 31 32 33 34 35 36 37 38 39 40 41 42 43 44 45 46 47 48 49 50

000
ASUS43 KLSX 221259
RWRMO

WEATHER SUMMARY FOR MISSOURI
NATIONAL WEATHER SERVICE SPRINGFIELD MO
800 AM CDT FRI AUG 22 2014

NOTE: "FAIR" INDICATES FEW OR NO CLOUDS BELOW 12,000 FEET WITH NO
       SIGNIFICANT WEATHER AND/OR OBSTRUCTIONS TO VISIBILITY.
       CURRENT SKY AND/OR WEATHER CONDITIONS ARE NOT AVAILABLE FOR
       CHILLICOTHE AND FARMINGTON.

MOZ001>031-035>038-043-044-053-054-221400-
...NORTHERN AND WESTERN MISSOURI...

CITY           SKY/WX    TMP DP  RH WIND       PRES   REMARKS
KANSAS CTY INT PTSUNNY   79  72  79 S5        29.94R
KANSAS C DTWN  MOSUNNY   81  70  69 VRB3      29.93R
LEE`S SUMMIT   MOSUNNY   77  70  79 SW5       29.95R
ST JOSEPH      PTSUNNY   78  75  90 CALM      29.94R
KIRKSVILLE     TSTM      74  73  97 S7        29.96F FOG

$$
MOZ066>068-077>081-088>096-101>105-221400-
...SOUTHWEST MISSOURI...

CITY           SKY/WX    TMP DP  RH WIND       PRES   REMARKS
SPRINGFIELD    SUNNY     77  71  82 S12       30.01S
JOPLIN         SUNNY     80  69  69 S15       30.00R

$$
MOZ032>034-039>042-045>050-055>058-069>072-221400-
...CENTRAL MISSOURI...

CITY           SKY/WX    TMP DP  RH WIND       PRES   REMARKS
COLUMBIA       PTSUNNY   76  72  87 S5        29.99R
JEFFERSON CITY MOSUNNY   77  71  82 E3        29.98R
ROLLA          SUNNY     76  70  82 S7        30.01R
SEDALIA        MOSUNNY   79  71  76 SW13      29.97R
OSAGE BEACH    SUNNY     79  70  73 S5        29.99S

$$
MOZ051-052-059>065-221400-
...EAST CENTRAL MISSOURI...

CITY           SKY/WX    TMP DP  RH WIND       PRES   REMARKS
ST LOUIS INTL  NOT AVBL
SPIRIT OF STL  PTSUNNY   79  71  76 SW9       29.98R
ST CHARLES     MOSUNNY   78  71  79 SW5       29.98R

$$
MOZ072>076-082>087-097>100-106>115-221400-
...SOUTH CENTRAL AND SOUTHEAST MISSOURI...

CITY           SKY/WX    TMP DP  RH WIND       PRES   REMARKS
CAPE GIRARDEAU SUNNY     77  73  87 S7        30.03S
FARMINGTON     SUNNY     75  72  88 S6        30.06R
POPLAR BLUFF   SUNNY     75  71  87 SW6       30.04R
WEST PLAINS    SUNNY     76  71  85 S8        30.07R

$$


USA.gov is the U.S. government's official web portal to all federal, state and local government web resources and services.